Location: Rottenacker
(48.2350°N, 9.6886°E)
Time: 07:00:44
(UTC+02:00)

OTV 5 (USA 277) - Pass Details

Date: 22 April 2018
Orbit: 308 x 326 km, 54.5° (Epoch: 06 May)

Event Time Altitude Azimuth Distance (km) Brightness Sun altitude
Rises 22:39:18 0° 283° (WNW) 2,062 ? -19.7°
Reaches altitude 10° 22:41:33 10° 300° (WNW) 1,227 ? -20.0°
Maximum altitude 22:43:45 21° 354° (N) 776 ? -20.2°
Enters shadow 22:44:46 17° 26° (NNE) 893 ? -20.3°
